Regional Weather Roundup
Issued by NWS

Home | Current Version | Previous Version | Graphics & Text | Print | Product List | Glossary Off
Versions: 1 2 3 4 5 6 7 8 9 10 11 12 13 14 15 16 17 18 19 20 21 22 23 24 25 26 27 28 29 30 31 32 33 34 35 36 37 38 39 40 41 42 43 44 45 46 47 48 49 50

496
ASUS44 KFWD 241415
RWRTX
NORTH TEXAS HOURLY WEATHER ROUNDUP
NATIONAL WEATHER SERVICE FORT WORTH TX
900 AM CDT MON APR 24 2017

NOTE: "FAIR" INDICATES FEW OR NO CLOUDS BELOW 12,000 FEET WITH NO
SIGNIFICANT WEATHER AND/OR OBSTRUCTIONS TO VISIBILITY.

TXZ118-119-241500-
DALLAS/FORT WORTH METROPLEX

CITY           SKY/WX    TMP DP  RH WIND       PRES   REMARKS
DFW AIRPORT    MOSUNNY   61  49  64 S7        29.94S
DALLAS LOVE    MOSUNNY   64  46  52 S7        29.96S
FTW MEACHAM    SUNNY     60  48  64 S9        29.95F
DAL-EXECUTIVE  SUNNY     63  48  58 CALM      29.96R
FTW-ALLIANCE   MOSUNNY   61  47  59 S8        29.94F
FTW-NAS-JRB    MOSUNNY   60  46  59 S14       29.96F
FTW-SPINKS     SUNNY     61  50  67 S5        29.98S
ARLINGTON      SUNNY     59  47  64 S8        29.97S
GRAND PRAIRIE  SUNNY     59  46  63 S6        29.98S
ADDISON        SUNNY     63  46  55 S6        29.97S
MESQUITE       SUNNY     55  50  82 CALM      29.99R
LANCASTER      SUNNY     56  50  80 CALM      29.98F
$$

TXZ091>094-102>105-117-120-121-131>134-241500-
NORTH CENTRAL TEXAS

CITY           SKY/WX    TMP DP  RH WIND       PRES   REMARKS
SHRMAN/DENISON SUNNY     60  46  61 SE8       29.96F
GAINESVILLE    SUNNY     55  48  79 S5        29.96S
BOWIE          SUNNY     58  48  70 S9        29.94R
BRIDGEPORT     SUNNY     61  45  56 S8        29.95F
DECATUR        SUNNY     60  42  51 S13       29.94F
DENTON         SUNNY     55  50  83 S3        29.95S
MCKINNEY       SUNNY     57  52  83 SE3       29.97F
BONHAM         SUNNY     57  46  67 SE5       29.98F
GREENVILLE     SUNNY     61  48  63 CALM      29.99S
ROCKWALL       SUNNY     61  49  65 S3        29.99R
TERRELL        SUNNY     58  48  69 CALM      29.99S
WAXAHACHIE     SUNNY     59  51  74 CALM      29.99R
CLEBURNE       SUNNY     59  52  77 S7        29.98S
GRANBURY       SUNNY     60  48  65 CALM      29.97S
$$

TXZ083>090-098>101-113>116-127>130-139>142-154-155-241500-
WESTERN NORTH TEXAS

CITY           SKY/WX    TMP DP  RH WIND       PRES   REMARKS
WICHITA FALLS  MOSUNNY   58  43  57 S15       29.91S
WF-KICKAPOO    SUNNY     58  45  62 S15       29.92S
VERNON         SUNNY     58  38  48 S13       29.87F
ABILENE        SUNNY     60  41  49 S15       29.90F
ABILENE-DYESS  CLOUDY    64  43  45 SW16      29.88F
GRAHAM         SUNNY     60  46  59 SE5       29.92S
BRECKENRIDGE   SUNNY     62  41  46 S16       29.92S
CISCO          SUNNY     57  43  58 S10       29.93S
RANGER         SUNNY     58  45  62 S12       29.94F
MINERAL WELLS  SUNNY     54  46  74 S7        29.93F
STEPHENVILLE   SUNNY     55  47  74 CALM      29.98R
COMANCHE       MOSUNNY   59  47  64 S6        29.95S
BROWNWOOD      CLOUDY    55  43  62 S7        29.95S
COLEMAN        MOSUNNY   58  42  56 S10       29.94S
$$

TXZ143>147-156>162-174-175-241500-
CENTRAL TEXAS

CITY           SKY/WX    TMP DP  RH WIND       PRES   REMARKS
WACO           SUNNY     58  52  80 S6        29.97S
WACO-MCGREGOR  SUNNY     61  51  70 S7        29.97F
HILLSBORO      SUNNY     58  49  72 S5        29.98S
CORSICANA      SUNNY     61  52  72 S3        30.00R
MEXIA          SUNNY     59  51  74 S3        29.98R
HEARNE         SUNNY     57  54  88 CALM      30.00S
CAMERON        SUNNY     60  50  68 SW3       29.98S
TEMPLE         SUNNY     59  50  72 S5        29.97F
KILLEEN        SUNNY     60  46  59 S10       29.94F
KILLEEN-SKYLRK SUNNY     59  47  64 S7        29.96F
FORT HOOD      SUNNY     61  47  60 S7        29.92F
GATESVILLE     SUNNY     57  48  72 CALM      29.98F
HAMILTON       SUNNY     59  47  64 S9        29.97R
LAMPASAS       SUNNY     57  49  74 S3        29.95R
$$

TXZ095>097-106>112-122>126-135>138-148>153-164>167-241500-
EAST TEXAS

CITY           SKY/WX    TMP DP  RH WIND       PRES   REMARKS
PARIS          SUNNY     57  48  72 E5        29.99F
SULPHUR SPRNGS SUNNY     58  51  77 E3        30.01F
MOUNT PLEASANT SUNNY     56  50  80 CALM      30.02S
GILMER         SUNNY     58  51  76 NE3       30.00S
MINEOLA        SUNNY     59  52  77 CALM      29.99F
TYLER          SUNNY     60  51  72 CALM      29.99R
LONGVIEW       SUNNY     58  50  75 CALM      29.99R
MARSHALL       SUNNY     58  49  73 CALM      30.02R
ATHENS         SUNNY     55  50  82 CALM      29.99S
PALESTINE      SUNNY     60  51  74 CALM      30.00F
JACKSONVILLE   SUNNY     62  48  60 CALM      30.02R
HENDERSON      SUNNY     57  50  77 CALM      30.01R
CENTER         SUNNY     62  51  66 N3        30.01R
NACOGDOCHES    SUNNY     57  50  77 CALM      29.99R
LUFKIN         SUNNY     60  51  72 NW3       30.00R
$$

SUPPLEMENTAL OBSERVATIONS (CENTRAL)

CITY           SKY/WX    TMP DP  RH WIND       PRES   REMARKS
DENISON DAM      N/A     55  48  76 E2          N/A
CADDO GRASSLND   N/A     61  52  72 CALM        N/A
PAT MAYSE LAKE   N/A     57  48  72 CALM        N/A
GREENVILLE       N/A     63  50  63 SE2         N/A
CEDAR HILL       N/A     63  46  55 S5          N/A
ATHENS           N/A     63  52  67 SE2         N/A
LAKE LIMESTONE   N/A     63  54  72 S1          N/A
MCGREGOR         N/A     61  52  72 S3          N/A
TEMPLE           N/A     63  48  59 S7          N/A
$$

SUPPLEMENTAL OBSERVATIONS (WEST)

CITY           SKY/WX    TMP DP  RH WIND       PRES   REMARKS
MILLERS CREEK    N/A     61  43  51 S13         N/A
POSSUM KINGDOM   N/A     63  45  51 S12         N/A
LBJ GRASSLAND    N/A     61  45  55 S9          N/A
GRANBURY         N/A     61  46  59 SE3         N/A
COMANCHE         N/A     61  45  55 S9          N/A
HAMBY            N/A     63  39  42 S14         N/A
IVIE RESERVOIR   N/A     61  41  48 SE10        N/A
COLORADO BEND    N/A     61  45  55 SW9         N/A
$$

SUPPLEMENTAL OBSERVATIONS (EAST)

CITY           SKY/WX    TMP DP  RH WIND       PRES   REMARKS
CLARKSVILLE      N/A     63  52  67 E2          N/A
TEXARKANA        N/A     61  52  72 CALM        N/A
LINDEN           N/A     64  52  63 CALM        N/A
CADDO LAKE       N/A     63  52  67 N2          N/A
GILMER           N/A     63  54  72 E2          N/A
HENDERSON        N/A     63  50  63 NE1         N/A
LUFKIN           N/A     63  50  63 MISG        N/A
S SABINE NF      N/A     63  48  59 N3          N/A
$$

SUPPLEMENTAL OBSERVATIONS ARE A COLLECTION OF AUTOMATED INSTRUMENTS
THAT ARE MAINTAINED BY A VARIETY OF FEDERAL AND STATE AGENCIES.
CERTAIN ELEMENTS...SUCH AS HUMIDITY VALUES AND SUSTAINED WIND
SPEEDS...MAY BE APPROXIMATED.





USA.gov is the U.S. government's official web portal to all federal, state and local government web resources and services.